Location: ????????
(55.6773°N, 38.2421°E)
Time: 08:14:42
(UTC+00:00)

Cosmos 2333 - Pass Details

Date: 23 May 2024
Orbit: 828 x 866 km, 70.9° (Epoch: 23 June)

Event Time Altitude Azimuth Distance (km) Brightness Sun altitude
Rises 23:59:16 0° 324° (NW) 3,422 7.6 -6.9°
Reaches altitude 10° 00:01:44 10° 322° (NW) 2,489 6.9 -6.7°
Maximum altitude 00:07:24 66° 242° (WSW) 936 4.3 -6.2°
Drops below altitude 10° 00:13:04 10° 161° (SSE) 2,496 6.4 -5.7°
Sets 00:15:33 0° 159° (SSE) 3,432 7.1 -5.5°
